Regional Weather Roundup
Issued by NWS Newport/Morehead, NC

Current Version | Previous Version | Graphics & Text | Print | Product List | Glossary Off
Versions: 1 2 3 4 5 6 7 8 9 10 11 12 13 14 15 16 17 18 19 20 21 22 23 24 25 26 27 28 29 30 31 32 33 34 35 36 37 38 39 40 41 42 43 44 45 46 47 48 49 50

000
ASUS42 KMHX 221422
RWRMHX
WEATHER ROUNDUP FOR EASTERN NORTH CAROLINA
NATIONAL WEATHER SERVICE NEWPORT/MOREHEAD CITY NC
1000 AM EDT TUE APR 22 2014

NOTE: "FAIR" INDICATES FEW OR NO CLOUDS BELOW 12,000 FEET
WITH NO SIGNIFICANT WEATHER AND/OR OBSTRUCTIONS TO VISIBILITY

NCZ015>017-031-032-045>047-102-103-221500-
NORTH COAST

CITY           SKY/WX    TMP DP  RH WIND       PRES   REMARKS
EDENTON        SUNNY     62  53  73 SW7       29.81F
ELIZABETH CITY SUNNY     64  51  62 S8        29.80F
KITTY HAWK     SUNNY     60  49  65 SW5       29.80F
MANTEO         SUNNY     60  50  69 SW7       29.82F

$$

NCZ045>047-081-094-103-104-221500-
CENTRAL COAST

CITY           SKY/WX    TMP DP  RH WIND       PRES   REMARKS
FRISCO         SUNNY     56  32  40 SW7       29.84F
SWANQUARTER      N/A     63 N/A N/A S6        29.79F

$$

NCZ095-097-098-100-101-221500-
SOUTHERN COAST

CITY           SKY/WX    TMP DP  RH WIND       PRES   REMARKS
BEAUFORT       SUNNY     65  58  78 SW12      29.84F
CEDAR ISLAND     N/A     68 N/A N/A S7        29.88S
JACKSONVILLE   SUNNY     68  56  65 SW10      29.84F
NEWPORT          N/A     66  57  72 SW9         N/A
PINEY ISLAND   SUNNY     69  57  65 SW12      29.83F
WILMINGTON     MOSUNNY   69  51  52 W8        29.86S


$$

NCZ011>013-027>030-043-044-078>080-089-090>093-098-221500-
COASTAL PLAIN

CITY           SKY/WX    TMP DP  RH WIND       PRES   REMARKS
AHOSKIE        SUNNY     65  49  56 S5        29.79F
CLINTON        MOSUNNY   67  49  54 SW8       29.84F
ELIZABETHTOWN  MOSUNNY   64  49  58 SW8       29.85F
GOLDSBORO      SUNNY     67  50  54 SW10      29.80F
GREENVILLE     SUNNY     66  50  55 SW9       29.84S
HAVELOCK       MOSUNNY   68  57  68 SW9       29.85F
KENANSVILLE    SUNNY     67  46  46 SW8       29.85S
KINSTON        MOSUNNY   68  50  52 SW8       29.83F
NEW BERN       MOSUNNY   70  58  65 SW8       29.84F
RICHLANDS      SUNNY     70  68  94 SW9       29.84F
ROANOKE RAPIDS NOT AVBL
ROCKY MOUNT    MOSUNNY   67  47  48 S10       29.80F
WASHINGTON     MOSUNNY   67  57  71 SW9       29.82F
WHITEVILLE     MOSUNNY   68  51  54 SW6       29.85S

$$

AMZ130-135-150-152-154-156-158-170-250-252-270-ANZ085-086-088-633-658-670-221500-
MARINE OBSERVATIONS

STATION/POSITION TIME  TEMP    WIND        PRES    WAVE   SWELL
                       AIR SEA DIR/SP/G            HT/PER HT/PER
                 (UTC) (F)     (DEG/KT/KT) (MB)    (FT/S) (FT/S)
CHESAPEAKE LIGHT 1400   51     200/ 14/ 14 1009.1
BUOY 44014       1400   46 48  230/  6/  6 1009.3    5/ 9   5/ 9
DUCK             1400   60 50  220/  8/ 11 1008.3
2E DUCK          1400      51                N/A     4/ 9   2/11
OREGON INLET     1400   54 52  190/  7/  8 1009.7
BUOY 44095       1400      49                N/A     5/10   2/11
HATTERAS CG      1400   59 53  210/  5/  7 1010.3
DIAMOND BUOY     1400   65 76  280/  8/ 10 1010.1
CAPE LOOKOUT     1400   62     180/  8/  9 1010.4
BEAUFORT LAB     1400   64 58  210/  5/  9 1009.8
30 SE NEW RIVER  1400   67 71  240/ 14/ 16 1011.2    4/ 9   3/ 9
5 SE WRIGHTSVILL 1400   61 59  210/  6/  8 1011.1
FRYING PAN BUOY  1400   66 67  250/ 14/ 16 1011.2    3/ 8   3/ 8
BUOY 41001       NOT AVBL
BUOY 41002       NOT AVBL
BUOY 41004       NOT AVBL

$$



USA.gov is the U.S. government's official web portal to all federal, state and local government web resources and services.